Regional Weather Roundup
Issued by NWS

Home | Current Version | Previous Version | Text Only | Print | Product List | Glossary Off
Versions: 1 2 3 4 5 6 7 8 9 10 11 12 13 14 15 16 17 18 19 20 21 22 23 24 25 26 27 28 29 30 31 32 33 34 35 36 37 38 39 40 41 42 43 44 45 46 47 48 49 50

000
ASUS43 KMPX 290410
RWRMN
WEATHER ROUNDUP FOR MINNESOTA
NATIONAL WEATHER SERVICE TWIN CITIES/CHANHASSEN MN
1100 PM CDT FRI APR 28 2017


NOTE: "FAIR" INDICATES FEW OR NO CLOUDS BELOW 12,000 FEET WITH NO
SIGNIFICANT WEATHER AND/OR OBSTRUCTIONS TO VISIBILITY. N/A MEANS
CURRENT SKY AND/OR WEATHER CONDITIONS ARE NOT AVAILABLE.

MNZ060>063-068>070-290500-
   Twin Cities Metro

CITY           SKY/WX    TMP DP  RH WIND       PRES   REMARKS
TWIN CITIES    PTCLDY    44  30  57 CALM      30.10R
ST PAUL        CLEAR     40  33  76 CALM      30.11R
CRYSTAL        CLEAR     37  27  67 CALM      30.09R
LAKEVILLE      CLEAR     37  30  75 CALM      30.09R
EDEN PRAIRIE   CLEAR     42  30  62 CALM      30.09R
SOUTH ST PAUL  CLEAR     41  30  64 CALM      30.10R
LAKE ELMO      FAIR      34  32  93 CALM      30.11R
$$
MNZ001>005-007-008-013>017-022>024-027-028-290500-
   Northwest Minnesota

CITY           SKY/WX    TMP DP  RH WIND       PRES   REMARKS
BEMIDJI        CLEAR     33  19  55 CALM      30.15R
HALLOCK        CLEAR     37  19  48 CALM      30.17R
ROSEAU         CLEAR     37  12  35 NW3       30.16R
WARROAD        CLEAR     37  14  38 NW6       30.15R
THIEF RVR FALL CLEAR     37  17  44 N5        30.18R
CROOKSTON      CLEAR     43  28  56 N3        30.18R
FOSSTON        CLEAR     30  19  64 CALM      30.16R
DETROIT LAKES  CLOUDY    41  23  48 NE3       30.16R
MOORHEAD       CLOUDY    37  27  65 CALM      30.17R
PARK RAPIDS    CLEAR     34  17  50 N7        30.14R WCI  28
MAHNOMEN       FAIR      34  26  73 NE5       30.15R WCI  29
$$
MNZ006-009>011-018-025>026-290500-
   North Central Minnesota

CITY           SKY/WX    TMP DP  RH WIND       PRES   REMARKS
BAUDETTE       CLEAR     32  22  66 CALM      30.13R
FLAG ISLAND    CLEAR     37  21  52 NW5       30.14R
INTL FALLS     CLEAR     28  23  81 CALM      30.14R
WASKISH        CLEAR     30  27  86 CALM      30.16R
BIG FORK       CLEAR     28  25  86 CALM      30.15R
LONGVILLE      CLEAR     36  27  69 CALM      30.14R
CRANE LAKE     CLEAR     25  21  86 CALM      30.16R
ORR            CLEAR     28  19  69 CALM      30.12R
COOK           CLEAR     28  25  86 CALM      30.15R
WALKER         FAIR      36  19  49 N3        30.15R
$$
MNZ012-019>021-037-290500-
   Northeast Minnesota

CITY           SKY/WX    TMP DP  RH WIND       PRES   REMARKS
DULUTH         PTCLDY    36  26  67 N6        30.13R
ELY            CLEAR     27  25  93 CALM      30.13R
HIBBING        CLEAR     26  22  84 CALM      30.14R
EVELETH        CLEAR     29  24  81 CALM      30.15R
DULUTH HARBOR  CLEAR     39  32  75 E7        30.17R
TWO HARBORS    CLOUDY    36  28  75 CALM      30.12R
SILVER BAY     CLOUDY    36  27  69 CALM      30.12R
GRAND MARAIS     N/A     35  29  78 CALM      30.14R
G MARAIS ARPRT CLOUDY    28  21  74 CALM      30.10R
$$
MNZ029>031-032-039>041-046>048-054>057-064-290500-
   West Central Minnesota

CITY           SKY/WX    TMP DP  RH WIND       PRES   REMARKS
FERGUS FALLS   CLOUDY    39  21  48 CALM      30.15R
WHEATON        CLOUDY    39  25  56 N7        30.18R
MORRIS         CLOUDY    39  25  56 N6        30.14R
ALEXANDRIA     CLOUDY    41  22  46 N8        30.14R
ELBOW LAKE     FAIR      38  26  59 CALM      30.16R
WADENA         CLEAR     37  19  48 N5        30.13S
GLENWOOD       PTCLDY    39  25  56 N7        30.14R
APPLETON       PTCLDY    39  25  56 N7        30.15R
BENSON         CLOUDY    41  21  45 NE6       30.17R
ORTONVILLE     PTCLDY    39  25  56 N9        30.16R
MADISON        PTCLDY    43  28  56 N9        30.14R
WILLMAR        FAIR      43  28  56 N8        30.14R
$$
MNZ033>034-036-042>043-049>051-058-059-290500-
   Central Minnesota

CITY           SKY/WX    TMP DP  RH WIND       PRES   REMARKS
ST CLOUD       PTCLDY    41  24  51 N6        30.12R
SAUK CENTRE    FAIR      41  21  44 N8        30.14R
PAYNESVILLE    CLEAR     41  22  47 N5        30.13R
AITKIN         PTCLDY    39  23  52 N5        30.14R
PINE RIVER     PTCLDY    36  23  60 CALM      30.17R
BRAINERD       PTCLDY    40  23  50 N7        30.13R
STAPLES        CLEAR     34  21  60 N3        30.13S
LONG PRAIRIE   FAIR      36  23  60 NW3       30.14R
LITTLE FALLS   CLOUDY    37  21  52 CALM      30.13R
LITCHFIELD     CLEAR     45  27  49 NE3       30.11R
BUFFALO        CLEAR     43  23  46 N5        30.12R
MAPLE LAKE     CLEAR     39  28  64 N3        30.12R
HUTCHINSON     CLEAR     39  31  74 N3        30.13R
$$
MNZ037-044-045-052-053-290500-
   East Central Minnesota

CITY           SKY/WX    TMP DP  RH WIND       PRES   REMARKS
PRINCETON      CLEAR     43  23  45 N7        30.12R
MORA           PTCLDY    39  27  60 N5        30.14R
CAMBRIDGE      CLEAR     43  27  52 NW3       30.10R
RUSH CITY      PTCLDY    41  28  60 N9        30.12R
MOOSE LAKE     CLEAR     37  25  60 N5        30.13R
HINCKLEY       FAIR      41  28  60 N9        30.12S
CLOQUET        CLEAR     36  21  55 N5        30.14R
MCGREGOR       PTCLDY    39  27  60 N6        30.15R
$$
MNZ071>073-080-081-089-090-097-098-290500-
   Southwest Minnesota

CITY           SKY/WX    TMP DP  RH WIND       PRES   REMARKS
MONTEVIDEO     PTCLDY    39  25  56 NE13      30.13R
GRANITE FALLS  CLEAR     44  25  47 NW6       30.15R
CANBY          CLEAR     41  26  55 N6        30.16R
MARSHALL       PTCLDY    35  25  66 NW9       30.13R WCI  28
REDWOOD FALLS  CLEAR     42  24  49 N7        30.11R
OLIVIA         CLEAR     41  28  60 N7        30.12R
PIPESTONE      CLOUDY    39  21  48 NE5       30.10S
WINDOM         CLOUDY    36  28  75 N10       30.09R
WORTHINGTON    CLOUDY    38  27  64 N8        30.09R
JACKSON        PTCLDY    34  30  86 N6        30.09R WCI  29
TRACY          CLOUDY    41  26  55 N7        30.12R
SLAYTON        CLOUDY    37  25  63 N9        30.11R
$$
MNZ065>067-074>077-082>085-091>093-290500-
   South Central Minnesota

CITY           SKY/WX    TMP DP  RH WIND       PRES   REMARKS
MANKATO        CLEAR     42  29  59 N8        30.10R
NEW ULM        CLEAR     45  27  49 CALM      30.10R
ST JAMES       CLOUDY    37  30  75 NW6       30.10R
FAIRMONT       MOCLDY    40  32  73 N6        30.09R
GLENCOE        CLEAR     39  34  82 CALM      30.10R
FARIBAULT      PTCLDY    36  34  93 N3        30.09S
OWATONNA       CLOUDY    39  30  70 NE5       30.09R
WASECA         CLEAR     36  32  87 NE7       30.10R
ALBERT LEA     CLOUDY    37  30  75 N5        30.07R
$$
MNZ078>079-086>088-094>096-290500-
   Southeast Minnesota

CITY           SKY/WX    TMP DP  RH WIND       PRES   REMARKS
ROCHESTER      CLOUDY    40  31  70 N9        30.07R
RED WING       CLEAR     37  30  75 N3        30.08S
STANTON        CLEAR     39  32  76 CALM      30.08R
DODGE CENTER   CLOUDY    39  30  70 NE3       30.08S
WINONA         CLOUDY    43  32  65 N3        30.07S
AUSTIN         PTCLDY    39  32  75 N6        30.07R
PRESTON        CLOUDY    39  32  75 N7        30.07R
$$
ABBREVIATIONS USED IN REMARKS
   TC - TEMPERATURES IN CELSIUS
  WCI - WIND CHILL INDEX
   HX - HEAT INDEX
  VSB - VISIBILITY
$$




USA.gov is the U.S. government's official web portal to all federal, state and local government web resources and services.